{"data":{"norad_id":66565,"epoch":"2026-09-20T21:04:32.479680Z","epoch_age_seconds":56470,"freshness":"FRESH","line1":"1 66565U 25268J   26263.87815370  .00008725  00000+0  32608-3 0  9992","line2":"2 66565  43.0022 324.5397 0001501 283.0716  76.9968 15.27591227 47814","mean_motion":15.27591227,"eccentricity":0.0001501,"inclination_deg":43.0022,"raan_deg":324.5397,"arg_perigee_deg":283.0716,"mean_anomaly_deg":76.9968,"bstar":0.00032608,"rev_number":4781,"period_min":94.26605590214,"perigee_km":481.98561958162,"apogee_km":484.04533755569,"semimajor_km":6861.1524785687,"source":"CELESTRAK","updated_at":"2026-09-21T09:00:35.971131Z"}}